TimeEST,TemperatureF,Dew PointF,Humidity,Sea Level PressureIn,VisibilityMPH,Wind Direction,Wind SpeedMPH,Gust SpeedMPH,PrecipitationIn,Events,Conditions,WindDirDegrees,DateUTC
12:09 AM,52.0,51.1,97,29.91,4.0,SSW,5.8,-,N/A,,Overcast,200,2013-12-06 05:09:00
12:53 AM,54.0,52.0,93,29.87,4.0,South,8.1,-,N/A,,Overcast,190,2013-12-06 05:53:00
1:53 AM,55.0,53.1,93,29.87,7.0,SSW,10.4,-,N/A,,Overcast,200,2013-12-06 06:53:00
2:36 AM,55.9,53.1,90,29.90,7.0,SW,6.9,-,N/A,,Overcast,230,2013-12-06 07:36:00
2:53 AM,55.9,53.1,90,29.86,7.0,South,6.9,-,N/A,,Overcast,190,2013-12-06 07:53:00
3:16 AM,55.9,53.1,90,29.85,7.0,South,6.9,-,N/A,,Overcast,180,2013-12-06 08:16:00
3:31 AM,55.9,53.1,90,29.87,7.0,SSW,8.1,-,N/A,,Overcast,200,2013-12-06 08:31:00
3:45 AM,55.9,53.1,90,29.86,7.0,SSW,4.6,-,N/A,,Overcast,200,2013-12-06 08:45:00
3:53 AM,55.9,53.1,90,29.86,7.0,SSW,5.8,-,N/A,,Overcast,210,2013-12-06 08:53:00
4:53 AM,55.0,53.1,93,29.85,6.0,SSW,3.5,-,N/A,,Overcast,200,2013-12-06 09:53:00
5:53 AM,55.0,53.1,93,29.86,5.0,SSW,3.5,-,N/A,,Overcast,200,2013-12-06 10:53:00
6:33 AM,55.0,53.1,93,29.88,2.0,Calm,Calm,-,0.00,Rain,Light Rain,0,2013-12-06 11:33:00
6:40 AM,55.0,53.1,93,29.89,1.2,Calm,Calm,-,0.00,Rain,Light Rain,0,2013-12-06 11:40:00
6:53 AM,55.0,53.1,93,29.88,1.0,Calm,Calm,-,0.01,Rain,Light Rain,0,2013-12-06 11:53:00
7:53 AM,52.0,48.9,89,29.89,10.0,NNW,9.2,-,0.02,,Overcast,340,2013-12-06 12:53:00
8:53 AM,50.0,46.9,89,29.94,10.0,WNW,10.4,-,N/A,,Overcast,300,2013-12-06 13:53:00
9:53 AM,50.0,46.9,89,29.96,8.0,NW,10.4,-,0.00,Rain,Light Rain,310,2013-12-06 14:53:00
10:00 AM,50.0,46.0,86,29.97,10.0,NW,11.5,-,0.00,,Overcast,320,2013-12-06 15:00:00
10:53 AM,48.9,46.0,90,29.95,10.0,NW,11.5,-,0.01,Rain,Light Rain,310,2013-12-06 15:53:00
11:53 AM,48.0,44.1,86,29.94,10.0,NW,8.1,-,0.00,,Overcast,320,2013-12-06 16:53:00
12:18 PM,48.0,44.1,86,29.96,10.0,NW,9.2,-,N/A,,Overcast,310,2013-12-06 17:18:00
12:29 PM,48.0,43.0,83,29.96,10.0,NW,9.2,-,N/A,,Overcast,310,2013-12-06 17:29:00
12:36 PM,48.0,43.0,83,29.97,10.0,WNW,9.2,-,N/A,,Overcast,300,2013-12-06 17:36:00
12:53 PM,48.0,43.0,83,29.95,10.0,NW,8.1,-,N/A,,Overcast,320,2013-12-06 17:53:00
1:48 PM,46.4,42.8,87,29.95,10.0,WNW,4.6,-,0.00,,Overcast,300,2013-12-06 18:48:00
1:53 PM,46.9,43.0,86,29.95,10.0,WNW,8.1,-,0.00,,Overcast,300,2013-12-06 18:53:00
2:16 PM,46.9,42.1,83,29.96,10.0,West,3.5,-,N/A,,Overcast,280,2013-12-06 19:16:00
2:53 PM,46.9,41.0,80,29.95,10.0,WNW,6.9,-,N/A,,Overcast,300,2013-12-06 19:53:00
3:53 PM,46.9,37.9,71,29.99,10.0,WNW,5.8,-,N/A,,Overcast,300,2013-12-06 20:53:00
4:53 PM,46.0,33.1,61,30.02,10.0,NW,9.2,-,N/A,,Overcast,320,2013-12-06 21:53:00
5:53 PM,45.0,33.1,63,30.01,10.0,NW,6.9,-,0.00,Rain,Light Rain,320,2013-12-06 22:53:00
6:53 PM,43.0,32.0,65,30.04,10.0,NW,11.5,-,0.02,Rain,Light Rain,320,2013-12-06 23:53:00
7:53 PM,39.9,34.0,79,30.06,10.0,NW,8.1,-,0.04,Rain,Light Rain,320,2013-12-07 00:53:00
8:53 PM,39.0,35.1,86,30.06,7.0,NW,3.5,-,0.03,Rain,Light Rain,310,2013-12-07 01:53:00
9:53 PM,37.0,34.0,89,30.11,5.0,NW,13.8,-,0.08,Rain,Rain,320,2013-12-07 02:53:00
10:53 PM,35.1,32.0,89,30.07,10.0,NNW,8.1,-,0.08,Rain,Light Rain,340,2013-12-07 03:53:00
11:34 PM,34.0,30.9,89,30.12,2.5,NW,8.1,-,0.05,Snow,Light Snow,320,2013-12-07 04:34:00
11:38 PM,33.1,30.9,92,30.11,1.8,NW,6.9,-,0.06,Snow,Light Snow,320,2013-12-07 04:38:00
11:53 PM,33.1,30.9,92,30.10,1.5,NNW,8.1,-,0.09,Snow,Light Snow,330,2013-12-07 04:53:00
11:58 PM,33.1,30.9,92,30.10,3.0,NW,6.9,-,0.01,Snow,Light Snow,320,2013-12-07 04:58:00